TimeEST,TemperatureF,Dew PointF,Humidity,Sea Level PressureIn,VisibilityMPH,Wind Direction,Wind SpeedMPH,Gust SpeedMPH,PrecipitationIn,Events,Conditions,WindDirDegrees,DateUTC
12:15 AM,14.0,10.4,86,29.80,7.0,NW,16.1,27.6,N/A,Snow,Light Snow,310,2013-03-04 05:15:00
12:35 AM,14.0,10.4,86,29.80,3.0,WNW,21.9,28.8,N/A,Snow,Light Snow,300,2013-03-04 05:35:00
1:15 AM,14.0,8.6,79,29.81,10.0,WNW,19.6,25.3,N/A,,Overcast,290,2013-03-04 06:15:00
1:55 AM,14.0,8.6,79,29.81,10.0,WNW,19.6,33.4,N/A,Snow,Light Snow,290,2013-03-04 06:55:00
2:15 AM,14.0,8.6,79,29.81,10.0,NW,20.7,28.8,N/A,Snow,Light Snow,310,2013-03-04 07:15:00
2:35 AM,14.0,8.6,79,29.82,10.0,WNW,18.4,31.1,N/A,Snow,Light Snow,300,2013-03-04 07:35:00
2:55 AM,14.0,8.6,79,29.82,7.0,WNW,19.6,33.4,N/A,Snow,Light Snow,290,2013-03-04 07:55:00
3:15 AM,14.0,8.6,79,29.82,10.0,WNW,23.0,32.2,N/A,,Overcast,290,2013-03-04 08:15:00
3:35 AM,12.2,8.6,85,29.80,10.0,WNW,20.7,33.4,N/A,,Overcast,300,2013-03-04 08:35:00
3:55 AM,12.2,8.6,85,29.80,10.0,WNW,24.2,32.2,N/A,,Mostly Cloudy,300,2013-03-04 08:55:00
4:15 AM,12.2,8.6,85,29.82,10.0,WNW,25.3,41.4,N/A,,Mostly Cloudy,300,2013-03-04 09:15:00
4:35 AM,12.2,8.6,85,29.82,10.0,WNW,20.7,26.5,N/A,,Overcast,290,2013-03-04 09:35:00
4:55 AM,12.2,8.6,85,29.82,10.0,WNW,18.4,27.6,N/A,Snow,Light Snow,290,2013-03-04 09:55:00
5:15 AM,12.2,8.6,85,29.83,10.0,NW,23.0,33.4,N/A,,Overcast,310,2013-03-04 10:15:00
5:35 AM,12.2,6.8,79,29.83,10.0,WNW,20.7,33.4,N/A,,Mostly Cloudy,300,2013-03-04 10:35:00
5:55 AM,12.2,8.6,85,29.83,10.0,WNW,15.0,29.9,N/A,,Mostly Cloudy,290,2013-03-04 10:55:00
6:15 AM,12.2,8.6,85,29.84,10.0,WNW,20.7,31.1,N/A,,Overcast,290,2013-03-04 11:15:00
6:35 AM,12.2,8.6,85,29.86,10.0,WNW,18.4,28.8,N/A,Snow,Light Snow,290,2013-03-04 11:35:00
6:55 AM,12.2,8.6,85,29.86,10.0,WNW,17.3,28.8,N/A,Snow,Light Snow,300,2013-03-04 11:55:00
7:15 AM,12.2,8.6,85,29.88,10.0,NW,17.3,25.3,N/A,,Overcast,310,2013-03-04 12:15:00
7:35 AM,12.2,8.6,85,29.88,10.0,WNW,21.9,31.1,N/A,,Scattered Clouds,300,2013-03-04 12:35:00
7:55 AM,12.2,8.6,85,29.89,10.0,WNW,23.0,29.9,N/A,,Clear,300,2013-03-04 12:55:00
8:15 AM,12.2,8.6,85,29.90,10.0,WNW,21.9,31.1,N/A,,Clear,300,2013-03-04 13:15:00
8:35 AM,14.0,8.6,79,29.90,10.0,WNW,20.7,28.8,N/A,,Clear,290,2013-03-04 13:35:00
8:55 AM,14.0,8.6,79,29.91,10.0,West,23.0,28.8,N/A,,Clear,280,2013-03-04 13:55:00
9:15 AM,15.8,8.6,73,29.91,10.0,WNW,21.9,32.2,N/A,,Clear,290,2013-03-04 14:15:00
9:35 AM,15.8,8.6,73,29.91,10.0,West,20.7,27.6,N/A,,Clear,280,2013-03-04 14:35:00
9:55 AM,17.6,8.6,68,29.93,10.0,West,19.6,28.8,N/A,,Clear,280,2013-03-04 14:55:00
10:15 AM,17.6,8.6,68,29.92,10.0,West,16.1,27.6,N/A,,Clear,280,2013-03-04 15:15:00
10:35 AM,19.4,10.4,68,29.93,10.0,WNW,11.5,21.9,N/A,,Clear,290,2013-03-04 15:35:00
10:55 AM,21.2,10.4,63,29.94,10.0,West,15.0,20.7,N/A,,Clear,280,2013-03-04 15:55:00
11:15 AM,21.2,10.4,63,29.94,10.0,WNW,13.8,24.2,N/A,,Clear,290,2013-03-04 16:15:00
11:35 AM,23.0,10.4,59,29.94,10.0,WNW,12.7,-,N/A,,Clear,290,2013-03-04 16:35:00
11:55 AM,24.8,10.4,54,29.94,10.0,WNW,15.0,19.6,N/A,,Clear,290,2013-03-04 16:55:00
12:15 PM,24.8,10.4,54,29.94,10.0,WNW,13.8,19.6,N/A,,Clear,290,2013-03-04 17:15:00
12:35 PM,26.6,10.4,51,29.94,10.0,West,16.1,20.7,N/A,,Clear,270,2013-03-04 17:35:00
12:55 PM,26.6,10.4,51,29.93,10.0,West,17.3,23.0,N/A,,Clear,280,2013-03-04 17:55:00
1:15 PM,28.4,12.2,51,29.93,10.0,West,16.1,23.0,N/A,,Clear,270,2013-03-04 18:15:00
1:55 PM,28.4,12.2,51,29.93,10.0,West,17.3,21.9,N/A,,Clear,270,2013-03-04 18:55:00
2:15 PM,30.2,12.2,47,29.92,10.0,WNW,15.0,23.0,N/A,,Clear,290,2013-03-04 19:15:00
2:35 PM,30.2,12.2,47,29.93,10.0,West,17.3,20.7,N/A,,Clear,270,2013-03-04 19:35:00
2:55 PM,30.2,12.2,47,29.93,10.0,West,15.0,21.9,N/A,,Clear,270,2013-03-04 19:55:00
3:15 PM,32.0,12.2,44,29.93,10.0,WNW,11.5,18.4,N/A,,Clear,290,2013-03-04 20:15:00
3:35 PM,32.0,12.2,44,29.94,10.0,WNW,12.7,20.7,N/A,,Clear,300,2013-03-04 20:35:00
3:55 PM,32.0,12.2,44,29.93,10.0,WNW,15.0,20.7,N/A,,Clear,290,2013-03-04 20:55:00
4:35 PM,32.0,10.4,41,29.93,10.0,WNW,12.7,19.6,N/A,,Clear,290,2013-03-04 21:35:00
4:55 PM,32.0,10.4,41,29.93,10.0,West,13.8,19.6,N/A,,Clear,280,2013-03-04 21:55:00
5:15 PM,32.0,10.4,41,29.94,10.0,West,15.0,-,N/A,,Clear,280,2013-03-04 22:15:00
5:35 PM,30.2,10.4,44,29.95,10.0,West,15.0,20.7,N/A,,Clear,280,2013-03-04 22:35:00
5:55 PM,30.2,10.4,44,29.95,10.0,West,13.8,-,N/A,,Clear,280,2013-03-04 22:55:00
6:15 PM,28.4,10.4,47,29.95,10.0,West,16.1,20.7,N/A,,Clear,270,2013-03-04 23:15:00
6:35 PM,28.4,10.4,47,29.96,10.0,West,13.8,18.4,N/A,,Clear,270,2013-03-04 23:35:00
6:55 PM,26.6,10.4,51,29.96,10.0,WNW,17.3,20.7,N/A,,Clear,290,2013-03-04 23:55:00
7:15 PM,26.6,10.4,51,29.96,10.0,WNW,13.8,-,N/A,,Clear,290,2013-03-05 00:15:00
7:35 PM,26.6,10.4,51,29.97,10.0,West,11.5,-,N/A,,Clear,270,2013-03-05 00:35:00
7:55 PM,26.6,8.6,47,29.97,10.0,West,9.2,-,N/A,,Clear,270,2013-03-05 00:55:00
8:15 PM,26.6,10.4,51,29.97,10.0,West,11.5,-,N/A,,Clear,270,2013-03-05 01:15:00
8:35 PM,26.6,10.4,51,29.98,10.0,West,12.7,-,N/A,,Clear,280,2013-03-05 01:35:00
8:55 PM,24.8,10.4,54,29.98,10.0,West,13.8,-,N/A,,Clear,280,2013-03-05 01:55:00
9:35 PM,24.8,10.4,54,29.98,10.0,West,13.8,-,N/A,,Clear,280,2013-03-05 02:35:00
9:55 PM,24.8,10.4,54,29.98,10.0,West,12.7,-,N/A,,Clear,280,2013-03-05 02:55:00
10:15 PM,26.6,10.4,51,29.98,10.0,West,11.5,-,N/A,,Clear,280,2013-03-05 03:15:00
10:35 PM,26.6,8.6,47,29.97,10.0,West,11.5,-,N/A,,Clear,280,2013-03-05 03:35:00
10:55 PM,26.6,8.6,47,29.98,10.0,West,12.7,-,N/A,,Clear,280,2013-03-05 03:55:00
11:15 PM,26.6,8.6,47,29.97,10.0,West,12.7,-,N/A,,Clear,280,2013-03-05 04:15:00
11:35 PM,26.6,10.4,51,29.97,10.0,West,12.7,-,N/A,,Scattered Clouds,280,2013-03-05 04:35:00
11:55 PM,26.6,10.4,51,29.97,10.0,West,13.8,-,N/A,,Scattered Clouds,280,2013-03-05 04:55:00